This demonstration page uses our WeatherBlox Daily Observations layout. Learn more.

Left ArrowRight Arrow

Hourly Observations for January 27, 2022

Temp ( °F °C ) Dew Point ( °F °C ) Humidity (%) Winds ( mph kmh ) Pressure ( in mb ) Visibility ( mi km ) Precip ( " mm )
12:52 am 00:52 Cloudy 29 -1.7 8 -13.3 41 41 S 9 15 30.28 1025 10 16 0.00 0.00
1:48 am 01:48 Cloudy with Light Snow 27 -3 19 -7 74 74 S 8 13 30.32 1027 3 4 0.01 0.25
1:52 am 01:52 Cloudy with Light Snow 26 -3.3 19 -7.2 75 75 S 8 13 30.28 1025 3 5 0.01 0.25
2:52 am 02:52 Cloudy with Light Snow 26 -3.3 21 -6.1 81 81 S 7 11 30.28 1025 3 5 0.00 0.00
3:04 am 03:04 Cloudy with Light Snow 26 -3.3 21 -6.1 81 81 S 9 15 30.33 1027 5 8 0.00 0.00
3:21 am 03:21 Cloudy 26 -3.3 21 -6.1 81 81 S 9 15 30.32 1027 10 16 0.00 0.00
3:52 am 03:52 Cloudy 26 -3.3 21 -6.1 81 81 SSW 5 7 30.29 1026 10 16 0.00 0.00
4:52 am 04:52 Cloudy 27 -2.8 23 -5 85 85 S 6 9 30.29 1026 7 11 0.00 0.00
5:52 am 05:52 Cloudy 27 -2.8 23 -5 85 85 SSE 5 7 30.28 1025 10 16 0.00 0.00
6:52 am 06:52 Cloudy 28 -2.2 22 -5.6 78 78 S 8 13 30.29 1026 10 16 0.00 0.00
7:52 am 07:52 Cloudy 28 -2.2 22 -5.6 78 78 S 7 11 30.29 1026 9 14 0.00 0.00
8:33 am 08:33 Cloudy with Haze 29 -1.7 21 -6.1 72 72 S 8 13 30.33 1027 6 10 0.00 0.00
8:49 am 08:49 Cloudy 28 -2 21 -6 74 74 S 7 11 30.33 1027 7 11 0.00 0.00
8:52 am 08:52 Cloudy 29 -1.7 22 -5.6 75 75 S 8 13 30.29 1026 8 13 0.00 0.00
9:16 am 09:16 Cloudy 29 -1.7 22 -5.6 75 75 S 8 13 30.33 1027 9 14 0.00 0.00
9:52 am 09:52 Cloudy 31 -0.6 24 -4.4 76 76 SSW 7 11 30.29 1026 10 16 0.00 0.00
10:21 am 10:21 Cloudy 33 0.6 25 -3.9 72 72 SW 7 11 30.32 1027 10 16 0.00 0.00
10:52 am 10:52 Cloudy 36 2.2 27 -2.8 70 70 W 9 15 30.29 1026 10 16 0.00 0.00
11:11 am 11:11 Cloudy 37 2.8 27 -2.8 67 67 W 14 22 30.30 1026 10 16 0.00 0.00
11:52 am 11:52 Cloudy 36 2.2 27 -2.8 70 70 W 13 20 30.27 1025 10 16 0.00 0.00
12:52 pm 12:52 Cloudy 39 3.9 28 -2.2 65 65 W 13 20 30.25 1025 10 16 0.00 0.00
1:07 pm 13:07 Cloudy 39 3.9 27 -2.8 62 62 W 15 24 30.26 1025 10 16 0.00 0.00
1:16 pm 13:16 Cloudy 39 3.9 27 -2.8 62 62 W 15 24 30.26 1025 10 16 0.00 0.00
1:52 pm 13:52 Partly Cloudy 41 5 27 -2.8 57 57 W 12 19 30.24 1024 10 16 0.00 0.00
2:52 pm 14:52 Mostly Sunny 42 5.6 26 -3.3 53 53 WNW 8 13 30.24 1024 10 16 0.00 0.00
3:52 pm 15:52 Sunny 42 5.6 26 -3.3 53 53 NW 14 22 30.25 1025 10 16 0.00 0.00
4:52 pm 16:52 Sunny 40 4.4 26 -3.3 58 58 NNW 14 22 30.27 1025 10 16 0.00 0.00
5:52 pm 17:52 Clear 34 1.1 24 -4.4 67 67 NW 9 15 30.28 1025 10 16 0.00 0.00
6:52 pm 18:52 Clear 32 0 22 -5.6 66 66 NNW 8 13 30.31 1027 10 16 0.00 0.00
7:52 pm 19:52 Clear 30 -1.1 21 -6.1 69 69 NNW 6 9 30.34 1027 10 16 0.00 0.00
8:52 pm 20:52 Clear 30 -1.1 22 -5.6 72 72 NNW 8 13 30.35 1028 10 16 0.00 0.00
9:52 pm 21:52 Clear 29 -1.7 21 -6.1 72 72 NNW 7 11 30.36 1028 10 16 0.00 0.00
10:52 pm 22:52 Clear 25 -3.9 19 -7.2 78 78 NNW 7 11 30.36 1028 10 16 0.00 0.00
11:52 pm 23:52 Clear 28 -2.2 20 -6.7 72 72 NW 5 7 30.35 1028 10 16 0.00 0.00

Powered by AerisWeather